[[{"header":{"parameterUnit":"m.s-1","parameterCategory":1,"la1":30.2992,"la2":30.254,"lo1":-89.0895,"lo2":-89.0443,"dy":0.0025,"dx":0.0025,"nx":19,"ny":19,"refTime":"2026-04-30T03:00:00:Z","depth":0,"parameterNumber":2,"parameterNumberName":"U-component_of_WINDS"},"data":[0,0,0,3.9695,3.97,3.9915,3.9916,4.0194,4.0197,0,0,0,0,0,0,0,0,0,0,0,3.9635,3.9637,3.9695,3.9701,3.9915,3.9916,4.0194,4.0197,0,0,0,0,0,0,0,0,0,0,0,3.9634,3.9637,3.9639,3.9701,3.9915,3.9916,4.0193,4.003,0,0,0,0,0,0,0,0,0,0,3.9821,3.9768,3.9636,3.9639,3.9703,3.9914,3.9916,4.0022,4.004,4.0099,0,4.0153,0,4.0179,4.0216,4.0217,0,0,0,3.9698,3.9753,3.9808,3.9639,3.9705,3.9914,3.9818,4.0032,4.0052,4.0123,4.0157,4.0167,4.0184,4.0217,4.0219,4.0562,4.0564,0,0,3.9686,3.9676,3.9794,3.9821,3.9789,3.9811,3.9824,4.0044,4.008,4.0158,4.0173,4.0188,4.0219,4.0222,4.0561,4.0563,0,0,0,3.9654,3.9668,3.9717,3.981,3.9848,3.9817,3.9833,4.007,4.0087,4.0176,4.0191,4.0221,4.0224,4.0559,4.0562,4.0631,0,0,0,3.9647,3.9648,3.9712,3.9707,3.9844,3.9962,3.9854,4.0072,4.0097,4.019,4.0221,4.0227,4.0557,4.056,4.0625,4.0665,0,0,0,3.962,3.9645,3.9677,3.9706,3.9798,3.9959,3.9989,4.0078,4.0107,4.0217,4.0228,4.0556,4.056,4.062,4.0657,4.0748,0,0,0,3.9589,3.974,3.9678,3.9853,3.9796,4.0001,3.9987,4.0142,4.0245,4.0222,4.0558,4.0561,4.0618,4.0651,4.0742,4.0819,4.0852,0,0,3.9774,3.9762,3.9866,3.9817,4.0029,3.997,4.0193,4.0299,4.0321,4.048,4.0489,4.0627,4.0656,4.0747,4.1045,4.107,0,0,0,3.992,3.9994,4.0053,4.0149,4.0233,4.0305,4.0378,4.0417,4.0552,4.0401,4.0688,4.0705,4.0759,4.0796,4.0818,4.0862,4.0579,4.0579,4.0579,4.0165,4.0182,4.0353,4.0394,4.0488,4.0559,4.0635,4.0699,4.0693,4.076,4.0806,4.0985,4.1028,4.1044,4.109,4.0852,4.0853,4.0853,4.0853,4.0433,4.0537,4.0521,4.068,4.0696,4.083,4.0904,4.0893,4.1018,4.0953,4.1001,4.0923,4.1072,4.1112,4.0859,4.0858,4.0857,4.0856,4.0856,4.0591,4.0643,4.0687,4.0824,4.0928,4.0966,4.1085,4.1098,4.1111,4.1159,4.1205,4.1204,4.12,4.1181,4.1182,4.1182,4.1183,4.1183,4.1184,4.0735,4.0782,4.088,4.0978,4.1039,4.112,4.1191,4.1251,4.1321,4.132,4.1321,4.1303,4.1085,4.1027,4.1193,4.1191,4.119,4.1189,4.1189,4.0992,4.0935,4.1087,4.1148,4.1261,4.136,4.1375,4.1495,4.1547,4.1604,4.1577,4.1415,4.1404,4.1387,4.1338,4.1576,4.1576,4.1576,4.1576,4.1121,4.1117,4.1272,4.1367,4.1462,4.1489,4.1656,4.1712,4.1761,4.1793,4.1761,4.17,4.1682,4.1682,4.1658,4.1612,4.1914,4.1914,4.1915,4.1277,4.1282,4.1422,4.1468,4.1556,4.1631,4.1788,4.1895,4.194,4.1929,4.1817,4.1802,4.1703,4.1671,4.1654,4.1617,4.1534,0,0]},{"header":{"parameterUnit":"m.s-1","parameterCategory":1,"la1":30.2992,"la2":30.254,"lo1":-89.0895,"lo2":-89.0443,"dy":0.0025,"dx":0.0025,"nx":19,"ny":19,"refTime":"2026-04-30T03:00:00:Z","depth":0,"parameterNumber":3,"parameterNumberName":"V-component_of_WINDS"},"data":[0,0,0,3.18,3.1805,3.2013,3.2013,3.2293,3.2296,0,0,0,0,0,0,0,0,0,0,0,3.1748,3.175,3.18,3.1805,3.2012,3.2013,3.2293,3.2296,0,0,0,0,0,0,0,0,0,0,0,3.1747,3.175,3.1752,3.1806,3.2012,3.2013,3.2292,3.213,0,0,0,0,0,0,0,0,0,0,3.1926,3.1887,3.1749,3.1752,3.1808,3.2012,3.2013,3.2122,3.214,3.2205,0,3.2266,0,3.2285,3.2315,3.2316,0,0,0,3.1799,3.1872,3.192,3.1753,3.1809,3.2012,3.1917,3.2132,3.2153,3.223,3.2269,3.2279,3.229,3.2317,3.2319,3.2713,3.2715,0,0,3.1787,3.179,3.1905,3.1933,3.1902,3.1911,3.1924,3.2144,3.2188,3.227,3.2286,3.2294,3.2319,3.2321,3.2711,3.2714,0,0,0,3.1759,3.1783,3.1824,3.1922,3.1958,3.1917,3.1932,3.2179,3.2192,3.2289,3.2298,3.2321,3.2325,3.2709,3.2712,3.2821,0,0,0,3.1752,3.1766,3.182,3.1824,3.1955,3.2071,3.1961,3.2176,3.2201,3.2296,3.2321,3.2327,3.2707,3.2711,3.2813,3.2872,0,0,0,3.1731,3.1763,3.1796,3.1823,3.1913,3.2067,3.2093,3.2182,3.2207,3.2317,3.2328,3.2705,3.271,3.2805,3.286,3.2976,0,0,0,3.1711,3.1891,3.1798,3.2003,3.1911,3.2133,3.2092,3.2257,3.2364,3.2322,3.2707,3.2712,3.2803,3.2853,3.2968,3.3074,3.3118,0,0,3.194,3.1919,3.2039,3.1962,3.2201,3.2101,3.2356,3.2452,3.246,3.2628,3.2638,3.2815,3.2859,3.2974,3.3365,3.3401,0,0,0,3.2113,3.2199,3.2262,3.2363,3.2439,3.2509,3.2565,3.26,3.2743,3.2547,3.2888,3.2914,3.2982,3.3032,3.3062,3.312,3.2735,3.2735,3.2734,3.2443,3.2442,3.264,3.2664,3.2763,3.2817,3.2897,3.2953,3.2925,3.3005,3.3056,3.3293,3.3352,3.3375,3.3434,3.3111,3.3112,3.3112,3.3112,3.2779,3.2901,3.2856,3.3033,3.3031,3.3179,3.3238,3.3213,3.335,3.3255,3.3315,3.3211,3.3413,3.3465,3.312,3.3119,3.3118,3.3117,3.3117,3.2995,3.3053,3.3091,3.3236,3.3347,3.3364,3.3498,3.3492,3.3487,3.3545,3.3597,3.3595,3.3593,3.357,3.3571,3.3572,3.3572,3.3573,3.3574,3.3204,3.3244,3.3357,3.3451,3.3514,3.3596,3.3651,3.3712,3.3779,3.3764,3.3764,3.3728,3.3433,3.3359,3.3586,3.3584,3.3582,3.3581,3.358,3.3545,3.3466,3.3641,3.3704,3.3813,3.3924,3.3913,3.4039,3.4089,3.4155,3.4105,3.3888,3.3866,3.3842,3.3781,3.4104,3.4104,3.4104,3.4104,3.3728,3.3715,3.3892,3.3992,3.409,3.4097,3.4294,3.4338,3.4371,3.4401,3.4353,3.4271,3.4247,3.424,3.4208,3.415,3.456,3.4561,3.4561,3.3937,3.3934,3.4103,3.4133,3.4217,3.429,3.4474,3.4592,3.4612,3.458,3.4425,3.4406,3.4273,3.4231,3.4196,3.4145,3.404,0,0]}]]